TimeAKDT,TemperatureF,Dew PointF,Humidity,Sea Level PressureIn,VisibilityMPH,Wind Direction,Wind SpeedMPH,Gust SpeedMPH,PrecipitationIn,Events,Conditions,WindDirDegrees,DateUTC
12:01 AM,27.0,27.0,100,30.22,10.0,East,8.1,-,N/A,,Unknown,100,2013-05-25 08:01:00
1:01 AM,25.0,25.0,100,30.21,10.0,East,6.9,-,N/A,,Unknown,100,2013-05-25 09:01:00
2:01 AM,25.0,25.0,100,30.21,10.0,East,10.4,-,N/A,,Unknown,90,2013-05-25 10:01:00
3:01 AM,24.1,24.1,100,30.20,10.0,East,9.2,-,N/A,,Unknown,90,2013-05-25 11:01:00
4:01 AM,24.1,24.1,100,30.20,10.0,East,10.4,-,N/A,,Unknown,100,2013-05-25 12:01:00
5:01 AM,25.0,25.0,100,30.19,10.0,East,8.1,-,N/A,,Unknown,100,2013-05-25 13:01:00
6:01 AM,26.1,26.1,100,30.19,10.0,ESE,8.1,-,N/A,,Unknown,110,2013-05-25 14:01:00
7:01 AM,28.0,28.0,100,30.17,6.0,ESE,8.1,-,N/A,,Mist,120,2013-05-25 15:01:00
8:01 AM,28.9,28.9,100,30.16,10.0,East,8.1,-,N/A,,Unknown,100,2013-05-25 16:01:00
9:01 AM,30.0,30.0,100,30.15,10.0,East,10.4,-,N/A,,Unknown,90,2013-05-25 17:01:00
10:01 AM,32.0,32.0,100,30.14,10.0,East,12.7,-,N/A,,Unknown,90,2013-05-25 18:01:00
11:01 AM,33.1,33.1,100,30.13,10.0,East,13.8,-,N/A,,Unknown,90,2013-05-25 19:01:00
12:01 PM,33.1,33.1,100,30.12,10.0,East,15.0,-,N/A,,Unknown,90,2013-05-25 20:01:00
1:01 PM,34.0,33.1,96,30.11,10.0,East,13.8,-,N/A,,Unknown,90,2013-05-25 21:01:00
2:01 PM,35.1,34.0,96,30.11,10.0,East,13.8,-,N/A,,Unknown,90,2013-05-25 22:01:00
3:01 PM,35.1,34.0,96,30.10,10.0,East,13.8,-,N/A,,Unknown,90,2013-05-25 23:01:00
4:01 PM,35.1,34.0,96,30.09,10.0,East,11.5,-,N/A,,Unknown,90,2013-05-26 00:01:00
5:01 PM,36.0,34.0,93,30.08,10.0,East,12.7,-,N/A,,Unknown,100,2013-05-26 01:01:00
6:01 PM,35.1,34.0,96,30.07,10.0,East,12.7,-,N/A,,Unknown,90,2013-05-26 02:01:00
7:01 PM,35.1,34.0,96,30.06,10.0,East,9.2,-,N/A,,Unknown,90,2013-05-26 03:01:00
8:01 PM,35.1,34.0,96,30.05,10.0,East,10.4,-,N/A,,Unknown,90,2013-05-26 04:01:00
9:01 PM,34.0,33.1,96,30.04,10.0,East,9.2,-,N/A,,Unknown,90,2013-05-26 05:01:00
10:01 PM,34.0,34.0,100,30.03,10.0,East,11.5,-,N/A,,Unknown,90,2013-05-26 06:01:00
11:01 PM,33.1,33.1,100,30.03,10.0,East,11.5,-,N/A,,Unknown,90,2013-05-26 07:01:00